Regional Weather Roundup
Issued by NWS

Home | Current Version | Previous Version | Text Only | Print | Product List | Glossary On
Versions: 1 2 3 4 5 6 7 8 9 10 11 12 13 14 15 16 17 18 19 20 21 22 23 24 25 26 27 28 29 30 31 32 33 34 35 36 37 38 39 40 41 42 43 44 45 46 47 48 49 50
256
ASUS44 KOUN 110410
RWROK

WEATHER ROUNDUP FOR OKLAHOMA
NATIONAL WEATHER SERVICE NORMAN OK
1000 PM CST SAT DEC 10 2016

NOTE: "FAIR" INDICATES FEW OR NO CLOUDS BELOW 12,000 FEET WITH NO
      SIGNIFICANT WEATHER AND/OR OBSTRUCTIONS TO VISIBILITY.

OKZ001>007-009>012-014-015-017-110500-
NORTHWEST OKLAHOMA AND THE PANHANDLE

CITY           SKY/WX    TMP DP  RH WIND       PRES   REMARKS
GAGE           CLOUDY    48  38  68 S23G32    29.76S
GUYMON         CLOUDY    52  30  43 S10       29.68F
ENID/WOODRING  PTCLDY    37  34  87 S15       29.87F WCI  28
$$

OKZ016-021>023-033>039-044-045-110500-
SOUTHWEST OKLAHOMA

CITY           SKY/WX    TMP DP  RH WIND       PRES   REMARKS
LAWTON/REGL    CLOUDY    44  38  79 S13       29.98F
LAWTON/FT SILL CLOUDY    44  40  84 S16       29.95F
FREDERICK      CLOUDY    45  39  79 S13       29.94F
CLINTON        CLOUDY    45  38  76 S25G35    29.87F
HOBART         CLOUDY    45  38  76 S26G36    29.90F
ALTUS AFB      CLOUDY    45  39  79 SE12      29.92F
$$

OKZ018>020-024>031-110500-
CENTRAL OKLAHOMA

CITY           SKY/WX    TMP DP  RH WIND       PRES   REMARKS
OKLAHOMA CITY  CLOUDY    42  36  79 S23G32    29.93F
OKC/WILEY POST CLOUDY    42  35  76 S22G31    29.91F
OKC/TINKER AFB PTCLDY    42  35  78 S21       29.93F
STILLWATER     CLOUDY    41  34  76 S15       29.94F
GUTHRIE        CLOUDY    43  36  76 S18G29    29.92F
$$

OKZ008-013-054>072-110500-
NORTHEAST OKLAHOMA

CITY           SKY/WX    TMP DP  RH WIND       PRES   REMARKS
TULSA          CLOUDY    45  32  60 S18G30    30.01F
TULSA/JONES    CLOUDY    46  31  55 S12       30.03F
PONCA CITY     CLOUDY    41  32  70 S17       29.93F
BARTLESVILLE   CLOUDY    41  28  60 S9        30.01F
MUSKOGEE       CLOUDY    45  29  53 S13       30.10F
$$

OKZ032-040>043-046>053-073>077-110500-
SOUTH CENTRAL/SOUTHEAST OKLAHOMA

CITY           SKY/WX    TMP DP  RH WIND       PRES   REMARKS
ARDMORE/DWNTWN CLOUDY    45  32  61 S12G17    30.09S
MCALESTER      CLOUDY    47  22  37 S9G23     30.11F
$$





USA.gov is the U.S. government's official web portal to all federal, state and local government web resources and services.